Actual water levels and discharges of Elbe river

Guaranteed water level and forecast    Ústí nad Labem-Střekov

Guaranteed water level
170 cm
on 13.07.2020 more information
Forecast
165 cm
on 14.07.2020 07:00
Tendency
Slowly rising
on 14.07.2020 metodika tendence
Forecast
(Source data ČHMÚ a Povodí Labe)

Děčín

Date and time (UTC) H (cm) Q (m3/s)
13. 7. 2020 12:40 145 155
13. 7. 2020 12:00 139 146
13. 7. 2020 11:00 131 134
13. 7. 2020 10:00 127 128
13. 7. 2020 09:00 126 126
13. 7. 2020 08:00 126 126
13. 7. 2020 07:00 126 126
13. 7. 2020 06:00 126 126
13. 7. 2020 05:00 126 126
13. 7. 2020 04:00 127 128
13. 7. 2020 03:00 127 128
13. 7. 2020 02:00 127 128
13. 7. 2020 01:00 127 128
13. 7. 2020 00:00 127 128

H - water level, Q - discharge

Ústí nad Labem

Date and time (UTC) H (cm) Q (m3/s)
13. 7. 2020 12:30 179 151
13. 7. 2020 12:00 183 158
13. 7. 2020 11:00 192 175
13. 7. 2020 10:00 196 182
13. 7. 2020 09:00 194 179
13. 7. 2020 08:00 183 158
13. 7. 2020 07:00 167 131
13. 7. 2020 06:00 163 125
13. 7. 2020 05:00 160 121
13. 7. 2020 04:00 160 121
13. 7. 2020 03:00 160 121
13. 7. 2020 02:00 160 121
13. 7. 2020 01:00 160 121
13. 7. 2020 00:00 160 121

H - water level, Q - discharge
more information

Mělník

Date and time (UTC) H (cm) Q (m3/s)
13. 7. 2020 12:40 257 -
13. 7. 2020 12:00 267 -
13. 7. 2020 11:00 267 -
13. 7. 2020 10:00 266 -
13. 7. 2020 09:00 263 -
13. 7. 2020 08:00 264 -
13. 7. 2020 07:00 265 -
13. 7. 2020 06:00 267 125
13. 7. 2020 05:00 269 -
13. 7. 2020 04:00 269 -
13. 7. 2020 03:00 267 -
13. 7. 2020 02:00 266 -
13. 7. 2020 01:00 266 -
13. 7. 2020 00:00 268 -

H - water level, Q - discharge
more information

Kostelec nad Labem

Date and time (UTC) H (cm) Q (m3/s)
13. 7. 2020 12:50 402 -
13. 7. 2020 12:00 399 37
13. 7. 2020 11:00 398 31
13. 7. 2020 10:00 405 38
13. 7. 2020 09:00 405 61
13. 7. 2020 08:00 404 64
13. 7. 2020 07:00 403 59
13. 7. 2020 06:00 404 -
13. 7. 2020 05:00 404 -
13. 7. 2020 04:00 405 -
13. 7. 2020 03:00 404 -
13. 7. 2020 02:00 404 -
13. 7. 2020 01:00 404 -
13. 7. 2020 00:00 403 -

H - water level, Q - discharge
more information

Přelouč

Date and time (UTC) H (cm) Q (m3/s)
13. 7. 2020 12:40 80 43
13. 7. 2020 12:00 81 44
13. 7. 2020 11:00 87 49
13. 7. 2020 10:00 76 40
13. 7. 2020 09:00 88 50
13. 7. 2020 08:00 89 51
13. 7. 2020 07:00 86 48
13. 7. 2020 06:00 85 47
13. 7. 2020 05:00 87 49
13. 7. 2020 04:00 88 50
13. 7. 2020 03:00 88 50
13. 7. 2020 02:00 89 51
13. 7. 2020 01:00 90 52
13. 7. 2020 00:00 90 52

H - water level, Q - discharge
more information

Němčice

Date and time (UTC) H (cm) Q (m3/s)
13. 7. 2020 12:40 111 30.5
13. 7. 2020 12:00 112 31
13. 7. 2020 11:00 112 31
13. 7. 2020 10:00 111 31
13. 7. 2020 09:00 110 30
13. 7. 2020 08:00 111 31
13. 7. 2020 07:00 112 31
13. 7. 2020 06:00 113 31
13. 7. 2020 05:00 115 32
13. 7. 2020 04:00 116 33
13. 7. 2020 03:00 116 33
13. 7. 2020 02:00 115 32
13. 7. 2020 01:00 115 32
13. 7. 2020 00:00 117 33

H - water level, Q - discharge
Source data
Labe Basin Vltava Basin Povodí Moravy ČHMÚ